timestamp,surface_pressure_avg,surface_temp_avg,battery_voltage,lat,long
2019-12-05 00:09:01+00:00,244.9898,5.2,12.73,47.84626,-54.09684
2019-12-05 00:19:01+00:00,244.4698,5.2,12.65,47.84626,-54.09684
2019-12-05 00:29:01+00:00,247.0231,5.2,12.65,47.84626,-54.09684
2019-12-05 00:39:01+00:00,243.3981,5.2,12.65,47.84626,-54.09684
2019-12-05 00:49:01+00:00,243.2964,5.2,12.65,47.84626,-54.09684
2019-12-05 00:59:01+00:00,251.8781,5.2,12.65,47.84626,-54.09684
2019-12-05 01:09:01+00:00,253.9764,5.2,12.65,47.84626,-54.09684
2019-12-05 01:19:01+00:00,245.8731,5.2,12.65,47.84626,-54.09684
2019-12-05 01:29:01+00:00,242.2398,5.2,12.65,47.84626,-54.09684
2019-12-05 01:39:01+00:00,244.4331,5.2,12.65,47.84626,-54.09684
2019-12-05 01:49:01+00:00,244.2197,5.2,12.65,47.84626,-54.09684
2019-12-05 01:59:01+00:00,242.1465,5.2,12.65,47.84626,-54.09684
2019-12-05 02:09:01+00:00,246.9931,5.2,12.65,47.84626,-54.09684
2019-12-05 02:19:01+00:00,253.5364,5.2,12.65,47.84626,-54.09684
2019-12-05 02:29:01+00:00,253.6297,5.22,12.65,47.84626,-54.09684
2019-12-05 02:39:01+00:00,249.2031,5.23,12.65,47.84626,-54.09684
2019-12-05 02:49:01+00:00,259.3714,5.24,12.65,47.84626,-54.09684
2019-12-05 02:59:01+00:00,273.9797,5.23,12.65,47.84626,-54.09684
2019-12-05 03:09:01+00:00,276.7714,5.22,12.65,47.84626,-54.09684
2019-12-05 03:19:01+00:00,271.3014,5.23,12.65,47.84626,-54.09684
2019-12-05 03:29:01+00:00,278.528,5.23,12.65,47.84626,-54.09684
2019-12-05 03:39:01+00:00,285.9297,5.24,12.65,47.84626,-54.09684
2019-12-05 03:49:01+00:00,282.6897,5.24,12.65,47.84626,-54.09684
2019-12-05 03:59:01+00:00,291.1647,5.25,12.65,47.84626,-54.09684
2019-12-05 04:09:01+00:00,301.293,5.24,12.65,47.84626,-54.09684
2019-12-05 04:19:01+00:00,304.2663,5.2,12.65,47.84626,-54.09684
2019-12-05 04:29:01+00:00,304.2946,5.2,12.65,47.84626,-54.09684
2019-12-05 04:39:01+00:00,312.7347,5.2,12.65,47.84626,-54.09684
2019-12-05 04:49:01+00:00,313.5997,5.2,12.65,47.84626,-54.09684
2019-12-05 04:59:01+00:00,310.3697,5.2,12.65,47.84626,-54.09684
2019-12-05 05:09:01+00:00,319.6196,5.2,12.65,47.84626,-54.09684
2019-12-05 05:19:01+00:00,331.2097,5.2,12.65,47.84626,-54.09684
2019-12-05 05:29:01+00:00,330.48800000000006,5.2,12.65,47.84626,-54.09684
2019-12-05 05:39:01+00:00,326.9363,5.2,12.65,47.84626,-54.09684
2019-12-05 05:49:01+00:00,329.653,5.2,12.65,47.84626,-54.09684
2019-12-05 05:59:01+00:00,326.95799999999997,5.2,12.65,47.84626,-54.09684
2019-12-05 06:09:01+00:00,320.1546,5.19,12.65,47.84626,-54.09684
2019-12-05 06:19:01+00:00,323.6746,5.19,12.57,47.84626,-54.09684
2019-12-05 06:29:01+00:00,327.723,5.19,12.57,47.84626,-54.09684
2019-12-05 06:39:01+00:00,316.8063,5.19,12.57,47.84626,-54.09684
2019-12-05 06:49:01+00:00,317.5947,5.19,12.57,47.84626,-54.09684
2019-12-05 06:59:01+00:00,326.7247,5.2,12.57,47.84626,-54.09684
2019-12-05 07:09:01+00:00,331.3497,5.2,12.57,47.84626,-54.09684
2019-12-05 07:19:01+00:00,327.2047,5.19,12.57,47.84626,-54.09684
2019-12-05 07:29:01+00:00,332.7612,5.2,12.57,47.84626,-54.09684
2019-12-05 07:39:01+00:00,334.36800000000005,5.2,12.57,47.84626,-54.09684
2019-12-05 07:49:01+00:00,325.8914,5.19,12.57,47.84626,-54.09684
2019-12-05 07:59:01+00:00,319.0413,5.2,12.57,47.84626,-54.09684
2019-12-05 08:09:01+00:00,316.2313,5.2,12.57,47.84626,-54.09684
2019-12-05 08:19:01+00:00,307.8247,5.2,12.57,47.84626,-54.09684
2019-12-05 08:29:01+00:00,305.1063,5.2,12.57,47.84626,-54.09684
2019-12-05 08:39:01+00:00,306.5314,5.2,12.57,47.84626,-54.09684
2019-12-05 08:49:01+00:00,304.33299999999997,5.2,12.57,47.84626,-54.09684
2019-12-05 08:59:01+00:00,295.1213,5.2,12.57,47.84626,-54.09684
2019-12-05 09:09:01+00:00,293.493,5.2,12.57,47.84626,-54.09684
2019-12-05 09:19:01+00:00,292.7546,5.2,12.57,47.84626,-54.09684
2019-12-05 09:29:01+00:00,290.2347,5.2,12.57,47.84626,-54.09684
2019-12-05 09:39:01+00:00,287.743,5.2,12.57,47.84626,-54.09684
2019-12-05 09:49:01+00:00,285.6347,5.2,12.57,47.84626,-54.09684
2019-12-05 09:59:01+00:00,272.8864,5.2,12.57,47.84626,-54.09684
2019-12-05 10:09:01+00:00,265.9398,5.2,12.57,47.84626,-54.09684
2019-12-05 10:19:01+00:00,264.3814,5.2,12.57,47.84626,-54.09684
2019-12-05 10:29:01+00:00,263.618,5.2,12.57,47.84626,-54.09684
2019-12-05 10:39:01+00:00,261.2714,5.1,12.57,47.84626,-54.09684
2019-12-05 10:49:01+00:00,263.7531,5.1,12.57,47.84626,-54.09684
2019-12-05 10:59:01+00:00,262.4247,5.08,12.57,47.84626,-54.09684
2019-12-05 11:09:01+00:00,256.5314,5.08,12.57,47.84626,-54.09684
2019-12-05 11:19:01+00:00,255.3264,5.09,12.57,47.84626,-54.09684
2019-12-05 11:29:01+00:00,265.6547,5.09,12.57,47.84626,-54.09684
2019-12-05 11:39:01+00:00,268.5797,5.1,12.57,47.84626,-54.09684
2019-12-05 11:49:01+00:00,262.823,5.1,12.57,47.84626,-54.09684
2019-12-05 11:59:01+00:00,262.0897,5.1,12.57,47.84626,-54.09684
2019-12-05 12:09:01+00:00,275.3481,5.1,12.57,47.84626,-54.09684
2019-12-05 12:19:01+00:00,279.7281,5.1,12.57,47.84626,-54.09684
2019-12-05 12:29:01+00:00,268.3731,5.1,12.57,47.84626,-54.09684
2019-12-05 12:39:01+00:00,265.8231,5.08,12.57,47.84626,-54.09684
2019-12-05 12:49:01+00:00,274.1831,5.0,12.57,47.84626,-54.09684
2019-12-05 12:59:01+00:00,274.118,5.0,12.57,47.84626,-54.09684
2019-12-05 13:09:01+00:00,266.2448,5.0,12.57,47.84626,-54.09684
2019-12-05 13:19:01+00:00,268.1197,5.0,12.57,47.84626,-54.09684
2019-12-05 13:29:01+00:00,273.5214,4.9,12.57,47.84626,-54.09684
2019-12-05 13:39:01+00:00,273.7364,4.9,12.57,47.84626,-54.09684
2019-12-05 13:49:01+00:00,277.4614,4.97,12.57,47.84626,-54.09684
2019-12-05 13:59:01+00:00,289.5914,5.1,12.57,47.84626,-54.09684
2019-12-05 14:09:01+00:00,299.0663,5.12,12.57,47.84626,-54.09684
2019-12-05 14:19:01+00:00,297.4696,5.15,12.57,47.84626,-54.09684
2019-12-05 14:29:01+00:00,298.3297,5.15,12.57,47.84626,-54.09684
2019-12-05 14:39:01+00:00,303.878,5.17,12.57,47.84626,-54.09684
2019-12-05 14:49:01+00:00,306.4396,5.14,12.57,47.84626,-54.09684
2019-12-05 14:59:01+00:00,302.83299999999997,5.1,12.57,47.84626,-54.09684
2019-12-05 15:09:01+00:00,314.8563,5.1,12.57,47.84626,-54.09684
2019-12-05 15:19:01+00:00,326.1163,5.1,12.57,47.84626,-54.09684
2019-12-05 15:29:01+00:00,330.028,5.03,12.57,47.84626,-54.09684
2019-12-05 15:39:01+00:00,319.5762,5.01,12.57,47.84626,-54.09684
2019-12-05 15:49:01+00:00,309.113,5.0,12.57,47.84626,-54.09684
2019-12-05 15:59:01+00:00,318.883,4.9,12.57,47.84626,-54.09684
2019-12-05 16:09:01+00:00,343.6846,4.88,12.57,47.84626,-54.09684
2019-12-05 16:19:01+00:00,355.7979,4.8,12.57,47.84626,-54.09684
2019-12-05 16:29:01+00:00,345.8063,4.9,12.57,47.84626,-54.09684
2019-12-05 16:39:01+00:00,339.923,5.0,12.57,47.84626,-54.09684
2019-12-05 16:49:01+00:00,319.1346,5.0,12.57,47.84626,-54.09684
2019-12-05 16:59:01+00:00,309.9197,4.9,12.57,47.84626,-54.09684
2019-12-05 17:09:01+00:00,325.688,5.0,12.57,47.84626,-54.09684
2019-12-05 17:19:01+00:00,336.3596,5.0,12.81,47.84626,-54.09684
2019-12-05 17:29:01+00:00,333.5947,5.0,12.81,47.84626,-54.09684
2019-12-05 17:39:01+00:00,328.5046,5.0,12.81,47.84626,-54.09684
2019-12-05 17:49:01+00:00,335.05800000000005,5.08,12.81,47.84626,-54.09684
2019-12-05 17:59:01+00:00,334.5363,5.1,12.81,47.84626,-54.09684
2019-12-05 18:09:01+00:00,335.67800000000005,5.1,12.81,47.84626,-54.09684
2019-12-05 18:19:01+00:00,342.9646,5.1,13.29,47.84626,-54.09684
2019-12-05 18:29:01+00:00,340.5047,5.1,13.29,47.84626,-54.09684
2019-12-05 18:39:01+00:00,333.0030000000001,5.1,13.29,47.84626,-54.09684
2019-12-05 18:49:01+00:00,320.913,5.1,13.29,47.84626,-54.09684
2019-12-05 18:59:01+00:00,326.138,5.18,13.29,47.84626,-54.09684
2019-12-05 19:09:01+00:00,323.1029,5.2,13.29,47.84626,-54.09684
2019-12-05 19:19:01+00:00,312.9547,5.2,13.05,47.84626,-54.09684
2019-12-05 19:29:01+00:00,314.6464,5.2,13.05,47.84626,-54.09684
2019-12-05 19:39:01+00:00,322.628,5.2,13.05,47.84626,-54.09684
2019-12-05 19:49:01+00:00,319.273,5.2,13.05,47.84626,-54.09684
2019-12-05 19:59:01+00:00,311.2546,5.19,13.05,47.84626,-54.09684
2019-12-05 20:09:01+00:00,311.6063,5.2,13.05,47.84626,-54.09684
2019-12-05 20:19:01+00:00,310.0563,5.2,12.89,47.84626,-54.09684
2019-12-05 20:29:01+00:00,311.9579,5.2,12.89,47.84626,-54.09684
2019-12-05 20:39:01+00:00,303.4931,5.2,12.89,47.84626,-54.09684
2019-12-05 20:49:01+00:00,295.858,5.18,12.89,47.84626,-54.09684
2019-12-05 20:59:01+00:00,290.7847,5.17,12.89,47.84626,-54.09684
2019-12-05 21:09:01+00:00,296.8614,5.17,12.89,47.84626,-54.09684
2019-12-05 21:19:01+00:00,289.7729,5.15,12.81,47.84626,-54.09684
2019-12-05 21:29:01+00:00,282.0964,5.1,12.81,47.84626,-54.09684
2019-12-05 21:39:01+00:00,282.953,5.1,12.81,47.84626,-54.09684
2019-12-05 21:49:01+00:00,290.0696,5.1,12.81,47.84626,-54.09684
2019-12-05 21:59:01+00:00,278.8747,5.1,12.81,47.84626,-54.09684
2019-12-05 22:09:01+00:00,266.2798,5.05,12.81,47.84626,-54.09684
2019-12-05 22:19:01+00:00,269.8764,5.02,12.81,47.84626,-54.09684
2019-12-05 22:29:01+00:00,277.1164,5.0,12.81,47.84626,-54.09684
2019-12-05 22:39:01+00:00,263.4747,5.0,12.81,47.84626,-54.09684
2019-12-05 22:49:01+00:00,254.7047,4.9,12.81,47.84626,-54.09684
2019-12-05 22:59:01+00:00,254.5281,4.9,12.81,47.84626,-54.09684
2019-12-05 23:09:01+00:00,247.653,4.9,12.81,47.84626,-54.09684
2019-12-05 23:19:01+00:00,241.9015,4.84,12.73,47.84626,-54.09684
2019-12-05 23:29:01+00:00,248.6947,4.9,12.73,47.84626,-54.09684
2019-12-05 23:39:01+00:00,255.8881,4.98,12.73,47.84626,-54.09684
2019-12-05 23:49:01+00:00,244.9481,4.9,12.73,47.84626,-54.09684
2019-12-05 23:59:01+00:00,236.1464,4.85,12.73,47.84626,-54.09684
